Miscellaneous Local Product
Issued by NWS Hastings, NE

Home | Current Version | Previous Version | Text Only | Print | Product List | Glossary On
Versions: 1 2 3 4 5 6 7 8 9 10 11 12 13 14 15 16 17 18 19 20 21 22 23 24 25 26 27 28 29 30 31 32 33 34 35 36 37 38 39 40 41 42 43 44 45 46 47 48 49 50
000
AXUS43 KGID 040602
MISGRI

GID CWA HOURLY WEATHER ROUNDUP
NATIONAL WEATHER SERVICE HASTINGS NE
100 AM CDT FRI SEP 04 2015

NOTE: "FAIR" INDICATES FEW OR NO CLOUDS BELOW 12,000 FEET WITH NO
SIGNIFICANT WEATHER AND/OR OBSTRUCTIONS TO VISIBILITY.

...SOUTH CENTRAL NEBRASKA...

CITY           SKY/WX    TMP DP  RH WIND       PRES   REMARKS
GRAND ISLAND   MOCLDY    77  64  64 S15       29.82S
HASTINGS       MOCLDY    77  63  61 S10       29.82S
KEARNEY        MOCLDY    79  61  53 S17       29.80S
ORD            MOCLDY    73  64  73 CALM      29.78S
YORK           MOCLDY    75  66  73 S13       29.84S
AURORA         MOCLDY    77  65  66 S12       29.82S
LEXINGTON      CLOUDY    80  61  52 SE8       29.80R
HOLDREGE       CLOUDY    78  60  53 SE10      29.81R
HEBRON         MOCLDY    78  62  58 S10G17    29.84S

...NEBRASKA PANHANDLE...

CITY           SKY/WX    TMP DP  RH WIND       PRES   REMARKS
CHADRON        LGT RAIN  73  54  51 SW9       29.81S
ALLIANCE       CLOUDY    67  55  65 NW5       29.86F
SCOTTSBLUFF    CLOUDY    66  60  81 CALM      29.87F
SIDNEY         MOCLDY    59  54  83 CALM      29.91F

...WESTERN AND NORTH CENTRAL NEBRASKA...

CITY           SKY/WX    TMP DP  RH WIND       PRES   REMARKS
VALENTINE      CLOUDY    76  56  49 NE3       29.75F
AINSWORTH      CLOUDY    79  63  57 S10       29.77S
ONEILL         MOCLDY    78  66  66 S9        29.78R
BROKEN BOW     CLOUDY    79  61  53 SE6       29.80S
IMPERIAL       CLOUDY    68  63  84 CALM      29.83S
NORTH PLATTE   CLOUDY    69  62  78 NW10      29.82F
MCCOOK         CLOUDY    82  59  45 S6        29.80F

...EASTERN NEBRASKA...

CITY           SKY/WX    TMP DP  RH WIND       PRES   REMARKS
NORFOLK        PTCLDY    77  67  71 S15       29.80S
SO SIOUX CITY  PTCLDY    76  69  79 SE10      29.82R
TEKAMAH        PTCLDY    73  70  90 SE6       29.84R
COLUMBUS       PTCLDY    79  64  61 S10G16    29.83R
ALBION         PTCLDY    73  65  75 SE7       29.81S
OMAHA EPPLEY   PTCLDY    79  68  69 S14       29.85S
OFFUTT AFB     PTCLDY    76  69  78 SE7       29.85S
MILLARD        CLEAR     77  69  77 SE7       29.85S
LINCOLN        PTCLDY    79  67  66 S13       29.85R
NEBRASKA CITY  PTCLDY    72  65  79 S9        29.88S
BEATRICE       MOCLDY    77  67  72 S10G17    29.87R
FALLS CITY     PTCLDY    75  68  78 S7        29.88S

...NORTHERN KANSAS...

CITY           SKY/WX    TMP DP  RH WIND       PRES   REMARKS
GOODLAND       MOCLDY    69  55  60 NW6       29.86S
HILL CITY      MOCLDY    83  59  44 S14G21    29.80S
NORTON         CLEAR     79  52  38 SE8       29.79S
PHILLIPSBURG   CLEAR     82  61  47 CALM      29.80S
SMITH CENTER   DRIZZLE   79  61  53 SE13G20   29.82S
HAYS           CLOUDY    82  57  42 S17G24    29.82S
RUSSELL        MOCLDY    81  59  47 S15       29.82R
CONCORDIA      CLOUDY    77  65  66 S15       29.85S
SALINA         CLOUDY    80  65  59 S13       29.85R
TOPEKA         CLEAR     76  68  76 SE8       29.90S



USA.gov is the U.S. government's official web portal to all federal, state and local government web resources and services.